Printer-friendly version

IAU Minor Planet Center

Minor Planet Center

37P/Forbes

Orbital Elements

The following orbital elements are taken from MPC 62882:
37P/Forbes
Epoch 2011 Dec. 25.0 TT = JDT 2455920.5
T 2011 Dec. 11.0179 TT                                  MPC
q   1.575311             (2000.0)            P               Q
n   0.1551683      Peri.  329.3887      +0.2534128      +0.9610818
a   3.429788       Node   315.0312      -0.8530171      +0.1683725
e   0.540697       Incl.    8.9558      -0.4562278      +0.2190262
P   6.35
From 548 observations 1980-2006, mean residual 0".7.  Nongravitational
     parameters A1 = +0.51, A2 = -0.0376.
Elements are also available for the current standard epoch:
37P/Forbes
Epoch 2010 Jan. 4.0 TT = JDT 2455200.5
T 2011 Dec. 10.7874 TT                                  MPC
q   1.573948             (2000.0)            P               Q
n   0.1550883      Peri.  329.3852      +0.2536569      +0.9610147
a   3.430968       Node   315.0488      -0.8529347      +0.1685578
e   0.541252       Incl.    8.9605      -0.4562462      +0.2191781
P   6.36
An explanation of the orbital elements is available.

These orbital elements are also available in forms suitable for loading into a number of popular planetarium-type software programs.


Ephemeris

The following ephemeris is at intervals of five days. A daily ephemeris covering the same time interval is also available.

Personalized ephemerides for this (and other) objects may be generated using the Minor Planet & Comet Ephemeris Service.

Recent magnitude estimates for this comet (as reported to the ICQ) may be available.

Date    TT    R. A. (2000) Decl.     Delta      r     Elong.  Phase   m1    m2

WARNING!

This comet gets close to the sun during the period covered in the ephemeris below. Observers are warned to be wary of observing comets near the sun. NEVER point any kind of optical instrument at the sun--instant blindness will be the probable result.

2010 01 24 09 12.05 +16 36.7 3.659 4.627 168.3 2.5 21.3 22.4 2010 01 29 09 08.38 +16 48.5 3.631 4.612 174.3 1.2 21.3 22.3 2010 02 03 09 04.61 +17 00.4 3.612 4.598 179.6 0.1 21.2 22.1 2010 02 08 09 00.80 +17 12.1 3.602 4.583 173.7 1.4 21.2 22.3 2010 02 13 08 57.02 +17 23.4 3.599 4.568 167.7 2.6 21.2 22.4 2010 02 18 08 53.33 +17 33.9 3.604 4.553 161.8 3.9 21.2 22.4 2010 02 23 08 49.81 +17 43.5 3.617 4.538 155.9 5.1 21.2 22.5 2010 02 28 08 46.51 +17 52.0 3.637 4.523 150.1 6.3 21.2 22.6 2010 03 05 08 43.48 +17 59.3 3.665 4.507 144.3 7.4 21.2 22.6 2010 03 10 08 40.77 +18 05.3 3.698 4.492 138.7 8.4 21.2 22.7 2010 03 15 08 38.42 +18 10.0 3.737 4.476 133.1 9.3 21.2 22.7 2010 03 20 08 36.45 +18 13.2 3.781 4.460 127.7 10.2 21.2 22.8 2010 03 25 08 34.88 +18 15.0 3.830 4.444 122.4 10.9 21.2 22.8 2010 03 30 08 33.73 +18 15.3 3.882 4.427 117.1 11.6 21.2 22.9 2010 04 04 08 33.00 +18 14.3 3.937 4.411 112.0 12.1 21.2 22.9 2010 04 09 08 32.68 +18 11.8 3.995 4.394 107.1 12.6 21.2 23.0 2010 04 14 08 32.78 +18 08.0 4.054 4.377 102.2 12.9 21.2 23.0 2010 04 19 08 33.28 +18 02.9 4.115 4.360 97.4 13.2 21.2 23.0 2010 04 24 08 34.16 +17 56.4 4.177 4.343 92.8 13.4 21.3 23.1 2010 04 29 08 35.42 +17 48.7 4.238 4.326 88.2 13.5 21.3 23.1 2010 05 04 08 37.02 +17 39.7 4.299 4.308 83.8 13.5 21.3 23.1 2010 05 09 08 38.96 +17 29.5 4.359 4.290 79.4 13.4 21.3 23.1 2010 05 14 08 41.21 +17 18.1 4.418 4.273 75.2 13.2 21.3 23.1 2010 05 19 08 43.76 +17 05.4 4.475 4.254 71.0 13.0 21.3 23.2 2010 05 24 08 46.59 +16 51.6 4.530 4.236 66.9 12.7 21.3 23.2 2010 05 29 08 49.66 +16 36.6 4.582 4.218 62.9 12.3 21.3 23.2 2010 06 03 08 52.98 +16 20.5 4.632 4.199 58.9 11.9 21.3 23.2 2010 06 08 08 56.51 +16 03.2 4.678 4.180 55.0 11.5 21.3 23.2 2010 06 13 09 00.25 +15 44.8 4.722 4.161 51.2 11.0 21.3 23.2 2010 06 18 09 04.17 +15 25.3 4.761 4.142 47.4 10.4 21.3 23.1 2010 06 23 09 08.26 +15 04.6 4.797 4.123 43.7 9.8 21.3 23.1 2010 06 28 09 12.51 +14 42.9 4.829 4.104 40.0 9.2 21.3 23.1 2010 07 03 09 16.90 +14 20.2 4.857 4.084 36.4 8.5 21.3 23.1 2010 07 08 09 21.42 +13 56.3 4.881 4.064 32.8 7.8 21.3 23.0 2010 07 13 09 26.06 +13 31.5 4.900 4.044 29.2 7.1 21.2 23.0 2010 07 18 09 30.80 +13 05.6 4.915 4.024 25.7 6.3 21.2 23.0 2010 07 23 09 35.64 +12 38.8 4.925 4.003 22.2 5.5 21.2 22.9 2010 07 28 09 40.56 +12 11.0 4.931 3.983 18.7 4.7 21.2 22.9 2010 08 02 09 45.55 +11 42.2 4.932 3.962 15.3 3.9 21.1 22.8 2010 08 07 09 50.61 +11 12.6 4.928 3.941 11.9 3.0 21.1 22.7 2010 08 12 09 55.73 +10 42.1 4.919 3.920 8.5 2.2 21.1 22.7 2010 08 17 10 00.90 +10 10.7 4.906 3.899 5.2 1.4 21.0 22.6 2010 08 22 10 06.10 +09 38.5 4.888 3.877 2.4 0.6 21.0 22.5 2010 08 27 10 11.34 +09 05.6 4.864 3.856 2.8 0.7 21.0 22.5 2010 09 01 10 16.60 +08 31.9 4.837 3.834 5.7 1.5 20.9 22.5 2010 09 06 10 21.87 +07 57.6 4.804 3.812 9.0 2.4 20.9 22.6 2010 09 11 10 27.16 +07 22.5 4.767 3.789 12.4 3.3 20.8 22.6 2010 09 16 10 32.44 +06 46.9 4.724 3.767 15.8 4.2 20.8 22.6 2010 09 21 10 37.72 +06 10.8 4.678 3.744 19.2 5.1 20.7 22.6 2010 09 26 10 42.98 +05 34.1 4.627 3.722 22.7 6.0 20.7 22.6 2010 10 01 10 48.23 +04 57.0 4.571 3.699 26.1 6.8 20.6 22.7 2010 10 06 10 53.44 +04 19.5 4.512 3.675 29.6 7.7 20.6 22.6 2010 10 11 10 58.61 +03 41.7 4.448 3.652 33.1 8.6 20.5 22.6 2010 10 16 11 03.73 +03 03.7 4.380 3.629 36.6 9.4 20.4 22.6 2010 10 21 11 08.79 +02 25.4 4.308 3.605 40.1 10.3 20.4 22.6 2010 10 26 11 13.78 +01 47.0 4.233 3.581 43.7 11.1 20.3 22.6 2010 10 31 11 18.69 +01 08.6 4.154 3.557 47.3 11.8 20.2 22.6 2010 11 05 11 23.51 +00 30.2 4.072 3.533 51.0 12.6 20.1 22.5 2010 11 10 11 28.23 -00 08.1 3.987 3.508 54.6 13.3 20.0 22.5 2010 11 15 11 32.82 -00 46.2 3.899 3.484 58.4 14.0 20.0 22.5 2010 11 20 11 37.27 -01 24.0 3.809 3.459 62.1 14.6 19.9 22.4 2010 11 25 11 41.57 -02 01.4 3.716 3.434 65.9 15.2 19.8 22.4 2010 11 30 11 45.71 -02 38.4 3.621 3.409 69.8 15.8 19.7 22.3 2010 12 05 11 49.65 -03 14.8 3.525 3.383 73.7 16.2 19.6 22.3 2010 12 10 11 53.37 -03 50.4 3.427 3.358 77.7 16.7 19.5 22.2 2010 12 15 11 56.86 -04 25.2 3.328 3.332 81.7 17.0 19.4 22.1 2010 12 20 12 00.08 -04 59.1 3.228 3.306 85.8 17.3 19.3 22.1 2010 12 25 12 03.02 -05 31.8 3.129 3.280 90.0 17.5 19.2 22.0 2010 12 30 12 05.63 -06 03.3 3.029 3.254 94.3 17.5 19.1 21.9 2011 01 04 12 07.90 -06 33.4 2.929 3.227 98.6 17.5 18.9 21.8 2011 01 09 12 09.78 -07 01.9 2.831 3.200 103.1 17.4 18.8 21.7 2011 01 14 12 11.24 -07 28.5 2.734 3.174 107.7 17.2 18.7 21.6 2011 01 19 12 12.26 -07 53.1 2.639 3.147 112.3 16.8 18.6 21.5 2011 01 24 12 12.79 -08 15.5 2.546 3.119 117.1 16.3 18.5 21.4 2011 01 29 12 12.81 -08 35.5 2.456 3.092 122.0 15.7 18.3 21.3 2011 02 03 12 12.29 -08 52.7 2.369 3.065 127.0 14.9 18.2 21.1 2011 02 08 12 11.20 -09 06.8 2.286 3.037 132.1 13.9 18.1 21.0 2011 02 13 12 09.54 -09 17.7 2.208 3.009 137.3 12.9 18.0 20.9 2011 02 18 12 07.30 -09 25.2 2.135 2.981 142.6 11.6 17.8 20.7 2011 02 23 12 04.50 -09 28.9 2.067 2.953 148.1 10.2 17.7 20.6 2011 02 28 12 01.16 -09 28.8 2.005 2.925 153.5 8.7 17.6 20.4

Valid HTML 4.01!